Weather History for KEEN - December, 2013

Change the Weather History Date:

Friday, December 6, 2013

  Actual Average Record
Temperature  
Mean Temperature 40 °F -  
Max Temperature 48 °F 38 °F 68 °F (2001)
Min Temperature 33 °F 21 °F -1 °F (1940)
Degree Days  
Heating Degree Days 24    
Moisture  
Dew Point 35 °F    
Average Humidity 76    
Maximum Humidity 87    
Minimum Humidity 53    
Precipitation  
Precipitation 0.15 in - - ()
Sea Level Pressure  
Sea Level Pressure 30.00 in    
Wind  
Wind Speed 2 mph (NNW)    
Max Wind Speed 10 mph    
Max Gust Speed -    
Visibility 7 miles    
Events      
Averages and records for this station are not official NWS values.
T = Trace of Precipitation, MM = Missing Value Source: NWS Daily Summary

Daily Weather History Graph

Daily Weather History Graph

Search for Another Location

Airport or City:

Trip Planner

Search our weather history database for the weather conditions in past years. The results will help you decide how hot, cold, wet, or windy it might be!

Date:

Astronomy

Dec. 06, 2013 Rise Set
Actual Time 7:05 AM EST 4:14 PM EST
Civil Twilight 6:33 AM EST 4:46 PM EST
Nautical Twilight 5:58 AM EST 5:22 PM EST
Astronomical Twilight 5:23 AM EST 5:56 PM EST
Moon 10:05 AM EST (12/6) 8:47 PM EST (12/6)
Length of Visible Light 10h 13m
Length of Day
9h 09m
Waxing Crescent, 19% of the Moon is Illuminated
Dec 6
Waxing Crescent
Dec 9
First Quarter
Dec 17
Full
Dec 25
Last Quarter
Jan 1
New

Hourly Weather History & Observations

Time (EST) Temp. Windchill Dew Point Humidity Pressure Visibility Wind Dir Wind Speed Gust Speed Precip Events Conditions
12:15 AM 42.8 °F - 37.4 °F 81% 29.91 in 1.8 mi Calm Calm - N/A   Overcast
12:35 AM 42.8 °F - 37.4 °F 81% 29.90 in 1.5 mi Calm Calm - N/A   Overcast
12:55 AM 42.8 °F - 37.4 °F 81% 29.89 in 1.8 mi Calm Calm - N/A   Overcast
1:15 AM 42.8 °F - 37.4 °F 81% 29.88 in 1.5 mi Calm Calm - N/A   Overcast
1:35 AM 42.8 °F - 37.4 °F 81% 29.88 in 1.8 mi Calm Calm - N/A   Overcast
1:55 AM 42.8 °F - 39.2 °F 87% 29.90 in 2.5 mi Calm Calm - N/A   Overcast
2:15 AM 48.2 °F - 42.8 °F 82% 29.86 in 1.5 mi Calm Calm - N/A   Overcast
2:35 AM 42.8 °F - 37.4 °F 81% 29.87 in 1.5 mi Calm Calm - N/A   Overcast
2:55 AM 42.8 °F - 39.2 °F 87% 29.87 in 1.5 mi Calm Calm - N/A   Overcast
3:15 AM 44.6 °F - 39.2 °F 81% 29.87 in 2.0 mi Calm Calm - N/A   Overcast
3:35 AM 44.6 °F - 41.0 °F 87% 29.86 in 1.5 mi Calm Calm - N/A   Overcast
3:55 AM 42.8 °F - 39.2 °F 87% 29.87 in 1.2 mi Calm Calm - N/A   Overcast
4:15 AM 44.6 °F 43.1 °F 39.2 °F 81% 29.88 in 1.2 mi WSW 3.5 mph - N/A   Overcast
4:35 AM 48.2 °F - 44.6 °F 87% 29.89 in 2.0 mi Calm Calm - N/A   Overcast
4:55 AM 48.2 °F - 44.6 °F 87% 29.90 in 2.5 mi ENE 3.5 mph - N/A   Overcast
5:15 AM 48.2 °F - 44.6 °F 87% 29.92 in 1.8 mi NW 8.1 mph - N/A   Overcast
5:35 AM 48.2 °F - 44.6 °F 87% 29.93 in 10.0 mi North 6.9 mph - 0.04 in   Overcast
5:55 AM 46.4 °F 45.2 °F 42.8 °F 87% 29.93 in 9.0 mi ENE 3.5 mph - 0.04 in   Overcast
6:15 AM 46.4 °F - 42.8 °F 87% 29.94 in 10.0 mi Calm Calm - N/A   Overcast
6:35 AM 46.4 °F - 41.0 °F 81% 29.93 in 10.0 mi Calm Calm - N/A   Overcast
6:55 AM 46.4 °F 45.2 °F 41.0 °F 81% 29.93 in 10.0 mi NNW 3.5 mph - N/A   Overcast
7:15 AM 44.6 °F - 39.2 °F 81% 29.94 in 9.0 mi Calm Calm - N/A   Overcast
7:35 AM 44.6 °F - 39.2 °F 81% 29.97 in 5.0 mi Calm Calm - 0.01 in   Overcast
7:55 AM 44.6 °F - 39.2 °F 81% 29.97 in 4.0 mi Calm Calm - 0.01 in   Overcast
8:15 AM 44.6 °F 42.2 °F 41.0 °F 87% 29.99 in 4.0 mi NNW 4.6 mph - N/A   Overcast
8:35 AM 44.6 °F - 39.2 °F 81% 30.00 in 10.0 mi Calm Calm - N/A   Overcast
8:55 AM 44.6 °F 42.2 °F 39.2 °F 81% 30.01 in 10.0 mi NNW 4.6 mph - N/A   Overcast
9:15 AM 44.6 °F 43.1 °F 37.4 °F 76% 30.01 in 10.0 mi WNW 3.5 mph - N/A   Overcast
9:35 AM 44.6 °F 42.2 °F 37.4 °F 76% 30.01 in 10.0 mi NNW 4.6 mph - N/A   Overcast
9:55 AM 44.6 °F 41.4 °F 35.6 °F 71% 30.01 in 10.0 mi NW 5.8 mph - N/A   Overcast
10:15 AM 44.6 °F 41.4 °F 35.6 °F 71% 30.01 in 10.0 mi NNW 5.8 mph - N/A   Overcast
10:35 AM 44.6 °F 43.1 °F 35.6 °F 71% 30.01 in 10.0 mi NW 3.5 mph - N/A   Overcast
10:55 AM 44.6 °F 41.4 °F 37.4 °F 76% 29.99 in 10.0 mi North 5.8 mph - N/A   Overcast
11:15 AM 44.6 °F 42.2 °F 37.4 °F 76% 30.00 in 10.0 mi NNW 4.6 mph - N/A   Overcast
11:35 AM 44.6 °F 41.4 °F 37.4 °F 76% 29.99 in 10.0 mi North 5.8 mph - N/A   Overcast
11:55 AM 44.6 °F 42.2 °F 35.6 °F 71% 30.01 in 10.0 mi WNW 4.6 mph - N/A   Overcast
12:15 PM 42.8 °F 37.0 °F 35.6 °F 76% 30.02 in 10.0 mi NW 10.4 mph - N/A   Overcast
12:35 PM 42.8 °F 39.3 °F 33.8 °F 70% 30.01 in 10.0 mi West 5.8 mph - N/A   Overcast
12:55 PM 44.6 °F 41.4 °F 33.8 °F 66% 30.00 in 10.0 mi West 5.8 mph - N/A   Overcast
1:15 PM 44.6 °F 40.7 °F 33.8 °F 66% 30.00 in 10.0 mi NW 6.9 mph - N/A   Scattered Clouds
1:35 PM 44.6 °F 42.2 °F 33.8 °F 66% 30.00 in 10.0 mi NNW 4.6 mph - N/A   Clear
1:55 PM 44.6 °F 42.2 °F 33.8 °F 66% 30.00 in 10.0 mi NW 4.6 mph - N/A   Clear
2:15 PM 44.6 °F 42.2 °F 32.0 °F 61% 30.00 in 10.0 mi NNW 4.6 mph - N/A   Clear
2:35 PM 44.6 °F - 32.0 °F 61% 29.99 in 10.0 mi Calm Calm - N/A   Clear
2:55 PM 42.8 °F 40.1 °F 30.2 °F 61% 30.01 in 10.0 mi NW 4.6 mph - N/A   Partly Cloudy
3:15 PM 42.8 °F 40.1 °F 30.2 °F 61% 30.02 in 10.0 mi NW 4.6 mph - N/A   Scattered Clouds
3:35 PM 42.8 °F 40.1 °F 30.2 °F 61% 30.02 in 10.0 mi NW 4.6 mph - N/A   Scattered Clouds
3:55 PM 42.8 °F 41.1 °F 28.4 °F 57% 30.03 in 10.0 mi NW 3.5 mph - N/A   Scattered Clouds
4:15 PM 42.8 °F 41.1 °F 28.4 °F 57% 30.05 in 10.0 mi West 3.5 mph - N/A   Overcast
4:35 PM 42.8 °F - 28.4 °F 57% 30.04 in 10.0 mi Calm Calm - N/A   Overcast
4:55 PM 41.0 °F 39.0 °F 28.4 °F 61% 30.05 in 10.0 mi West 3.5 mph - N/A   Overcast
5:15 PM 42.8 °F 41.1 °F 26.6 °F 53% 30.04 in 10.0 mi West 3.5 mph - N/A   Overcast
5:35 PM 39.2 °F - 30.2 °F 70% 30.05 in 10.0 mi Calm Calm - N/A   Overcast
5:55 PM 41.0 °F 39.0 °F 28.4 °F 61% 30.07 in 10.0 mi NNW 3.5 mph - N/A   Overcast
6:15 PM 39.2 °F - 30.2 °F 70% 30.07 in 10.0 mi Calm Calm - 0.01 in   Overcast
6:35 PM 37.4 °F 34.9 °F 30.2 °F 75% 30.07 in 10.0 mi NNE 3.5 mph - 0.01 in   Mostly Cloudy
6:55 PM 37.4 °F - 32.0 °F 81% 30.08 in 10.0 mi Calm Calm - 0.02 in   Mostly Cloudy
7:15 PM 37.4 °F - 32.0 °F 81% 30.09 in 10.0 mi Calm Calm - N/A   Scattered Clouds
7:35 PM 35.6 °F - 32.0 °F 87% 30.08 in 8.0 mi Calm Calm - N/A   Scattered Clouds
7:55 PM 35.6 °F - 30.2 °F 81% 30.09 in 5.0 mi Calm Calm - N/A   Scattered Clouds
8:15 PM 35.6 °F - 30.2 °F 81% 30.08 in 4.0 mi Calm Calm - 0.01 in   Scattered Clouds
8:35 PM 35.6 °F - 30.2 °F 81% 30.10 in 5.0 mi Calm Calm - 0.02 in   Scattered Clouds
8:55 PM 35.6 °F - 30.2 °F 81% 30.16 in 5.0 mi Calm Calm - 0.02 in   Mostly Cloudy
9:15 PM 33.8 °F - 28.4 °F 81% 30.14 in 7.0 mi Calm Calm - 0.01 in   Overcast
9:35 PM 33.8 °F 30.8 °F 28.4 °F 81% 30.12 in 6.0 mi ENE 3.5 mph - 0.02 in   Mostly Cloudy
9:55 PM 33.8 °F 29.6 °F 28.4 °F 81% 30.11 in 6.0 mi North 4.6 mph - 0.02 in   Scattered Clouds
10:15 PM 33.8 °F - 30.2 °F 87% 30.09 in 7.0 mi Calm Calm - 0.01 in   Mostly Cloudy
10:35 PM 33.8 °F 29.6 °F 28.4 °F 81% 30.12 in 5.0 mi NW 4.6 mph - 0.02 in   Overcast
10:55 PM 33.8 °F 30.8 °F 28.4 °F 81% 30.13 in 9.0 mi North 3.5 mph - 0.02 in   Overcast
11:15 PM 33.8 °F 30.8 °F 28.4 °F 81% 30.13 in 3.0 mi NNE 3.5 mph - 0.01 in   Overcast
11:35 PM 33.8 °F 27.7 °F 28.4 °F 81% 30.13 in 3.0 mi North 6.9 mph - 0.02 in   Mostly Cloudy
11:55 PM 33.8 °F 27.0 °F 26.6 °F 75% 30.13 in 2.0 mi North 8.1 mph - 0.02 in   Overcast